Time,TemperatureF,DewpointF,PressureIn,WindDirection,WindDirectionDegrees,WindSpeedMPH,WindSpeedGustMPH,Humidity,HourlyPrecipIn,Conditions,Clouds,dailyrainin,SoftwareType,DateUTC
2013-05-07 00:03:00,46.0,-99.9,30.75,East,82,4.0,5.0,-999,-99.99,,,-99.99,,2013-05-07 04:03:00,
2013-05-07 00:12:00,46.0,-99.9,30.05,East,82,4.0,5.0,-999,-99.99,,,-99.99,,2013-05-07 04:12:00,
2013-05-07 00:23:00,46.0,-99.9,30.05,East,82,4.0,5.0,-999,-99.99,,,-99.99,,2013-05-07 04:23:00,
2013-05-07 00:33:00,46.0,-99.9,30.05,East,82,4.0,5.0,-999,-99.99,,,-99.99,,2013-05-07 04:33:00,
2013-05-07 00:40:00,44.0,-99.9,30.05,East,87,4.0,5.0,-999,-99.99,,,-99.99,,2013-05-07 04:40:00,
2013-05-07 01:02:00,44.0,-99.9,30.75,East,87,4.0,5.0,-999,-99.99,,,-99.99,,2013-05-07 05:02:00,
2013-05-07 01:13:00,44.0,-99.9,30.05,East,87,4.0,5.0,-999,-99.99,,,-99.99,,2013-05-07 05:13:00,
2013-05-07 01:22:00,44.0,-99.9,30.05,East,87,4.0,5.0,-999,-99.99,,,-99.99,,2013-05-07 05:22:00,
2013-05-07 01:32:00,44.0,-99.9,30.05,East,87,4.0,5.0,-999,-99.99,,,-99.99,,2013-05-07 05:32:00,
2013-05-07 01:40:00,45.0,-99.9,30.05,ESE,112,2.0,5.0,-999,-99.99,,,-99.99,,2013-05-07 05:40:00,
2013-05-07 02:02:00,45.0,-99.9,30.75,ESE,112,2.0,5.0,-999,-99.99,,,-99.99,,2013-05-07 06:02:00,
2013-05-07 02:12:00,45.0,-99.9,30.05,ESE,112,2.0,5.0,-999,-99.99,,,-99.99,,2013-05-07 06:12:00,
2013-05-07 02:22:00,45.0,-99.9,30.05,ESE,112,2.0,5.0,-999,-99.99,,,-99.99,,2013-05-07 06:22:00,
2013-05-07 02:32:00,45.0,-99.9,30.05,ESE,112,2.0,5.0,-999,-99.99,,,-99.99,,2013-05-07 06:32:00,
2013-05-07 02:40:00,41.0,-99.9,30.05,East,95,5.0,6.0,-999,-99.99,,,-99.99,,2013-05-07 06:40:00,
2013-05-07 03:02:00,41.0,-99.9,30.75,East,95,5.0,6.0,-999,-99.99,,,-99.99,,2013-05-07 07:02:00,
2013-05-07 03:11:00,41.0,-99.9,30.05,East,95,5.0,6.0,-999,-99.99,,,-99.99,,2013-05-07 07:11:00,
2013-05-07 03:22:00,41.0,-99.9,30.05,East,95,5.0,6.0,-999,-99.99,,,-99.99,,2013-05-07 07:22:00,
2013-05-07 03:32:00,41.0,-99.9,30.05,East,95,5.0,6.0,-999,-99.99,,,-99.99,,2013-05-07 07:32:00,
2013-05-07 04:02:00,44.0,-99.9,30.75,South,169,4.0,8.0,-999,-99.99,,,-99.99,,2013-05-07 08:02:00,
2013-05-07 04:11:00,44.0,-99.9,30.05,South,169,4.0,8.0,-999,-99.99,,,-99.99,,2013-05-07 08:11:00,
2013-05-07 04:22:00,48.0,-99.9,30.75,SSE,166,5.0,10.0,-999,-99.99,,,-99.99,,2013-05-07 08:22:00,
2013-05-07 04:32:00,48.0,-99.9,30.05,SSE,166,5.0,10.0,-999,-99.99,,,-99.99,,2013-05-07 08:32:00,
2013-05-07 04:40:00,46.0,-99.9,30.05,SSE,152,4.0,8.0,-999,-99.99,,,-99.99,,2013-05-07 08:40:00,
2013-05-07 04:42:00,48.0,-99.9,30.75,SSE,166,5.0,10.0,-999,-99.99,,,-99.99,,2013-05-07 08:42:00,
2013-05-07 04:52:00,48.0,-99.9,30.75,SSE,166,5.0,10.0,-999,-99.99,,,-99.99,,2013-05-07 08:52:00,
2013-05-07 05:02:00,46.0,-99.9,30.05,SSE,152,4.0,8.0,-999,-99.99,,,-99.99,,2013-05-07 09:02:00,
2013-05-07 05:12:00,46.0,-99.9,30.05,SSE,152,4.0,8.0,-999,-99.99,,,-99.99,,2013-05-07 09:12:00,
2013-05-07 05:23:00,46.0,-99.9,30.05,SSE,152,4.0,8.0,-999,-99.99,,,-99.99,,2013-05-07 09:23:00,
2013-05-07 05:33:00,46.0,-99.9,30.05,SSE,152,4.0,8.0,-999,-99.99,,,-99.99,,2013-05-07 09:33:00,
2013-05-07 05:40:00,46.0,-99.9,30.06,South,178,2.0,6.0,-999,-99.99,,,-99.99,,2013-05-07 09:40:00,
2013-05-07 06:03:00,46.0,-99.9,30.76,South,178,2.0,6.0,-999,-99.99,,,-99.99,,2013-05-07 10:03:00,
2013-05-07 06:13:00,46.0,-99.9,30.06,South,178,2.0,6.0,-999,-99.99,,,-99.99,,2013-05-07 10:13:00,
2013-05-07 06:23:00,46.0,-99.9,30.06,South,178,2.0,6.0,-999,-99.99,,,-99.99,,2013-05-07 10:23:00,
2013-05-07 06:33:00,46.0,-99.9,30.06,South,178,2.0,6.0,-999,-99.99,,,-99.99,,2013-05-07 10:33:00,
2013-05-07 06:40:00,47.0,-99.9,30.07,South,181,3.0,6.0,-999,-99.99,,,-99.99,,2013-05-07 10:40:00,
2013-05-07 07:03:00,47.0,-99.9,30.77,South,181,3.0,6.0,-999,-99.99,,,-99.99,,2013-05-07 11:03:00,
2013-05-07 07:12:00,47.0,-99.9,30.07,South,181,3.0,6.0,-999,-99.99,,,-99.99,,2013-05-07 11:12:00,
2013-05-07 07:22:00,47.0,-99.9,30.07,South,181,3.0,6.0,-999,-99.99,,,-99.99,,2013-05-07 11:22:00,
2013-05-07 07:32:00,47.0,-99.9,30.07,South,181,3.0,6.0,-999,-99.99,,,-99.99,,2013-05-07 11:32:00,
2013-05-07 07:40:00,45.0,-99.9,30.09,East,94,3.0,7.0,-999,-99.99,,,-99.99,,2013-05-07 11:40:00,
2013-05-07 08:02:00,45.0,-99.9,30.79,East,94,3.0,7.0,-999,-99.99,,,-99.99,,2013-05-07 12:02:00,
2013-05-07 08:12:00,45.0,-99.9,30.09,East,94,3.0,7.0,-999,-99.99,,,-99.99,,2013-05-07 12:12:00,
2013-05-07 08:22:00,45.0,-99.9,30.09,East,94,3.0,7.0,-999,-99.99,,,-99.99,,2013-05-07 12:22:00,
2013-05-07 08:32:00,45.0,-99.9,30.09,East,94,3.0,7.0,-999,-99.99,,,-99.99,,2013-05-07 12:32:00,
2013-05-07 08:40:00,47.0,-99.9,30.11,ENE,75,6.0,10.0,-999,-99.99,,,-99.99,,2013-05-07 12:40:00,
2013-05-07 09:02:00,47.0,-99.9,30.81,ENE,75,6.0,10.0,-999,-99.99,,,-99.99,,2013-05-07 13:02:00,
2013-05-07 09:11:00,47.0,-99.9,30.11,ENE,75,6.0,10.0,-999,-99.99,,,-99.99,,2013-05-07 13:11:00,
2013-05-07 09:22:00,47.0,-99.9,30.11,ENE,75,6.0,10.0,-999,-99.99,,,-99.99,,2013-05-07 13:22:00,
2013-05-07 09:32:00,47.0,-99.9,30.11,ENE,75,6.0,10.0,-999,-99.99,,,-99.99,,2013-05-07 13:32:00,
2013-05-07 10:02:00,51.0,-99.9,30.82,East,84,6.0,9.0,-999,-99.99,,,-99.99,,2013-05-07 14:02:00,
2013-05-07 10:11:00,51.0,-99.9,30.12,East,84,6.0,9.0,-999,-99.99,,,-99.99,,2013-05-07 14:11:00,
2013-05-07 10:22:00,52.0,-99.9,30.82,East,92,5.0,10.0,-999,-99.99,,,-99.99,,2013-05-07 14:22:00,
2013-05-07 10:32:00,52.0,-99.9,30.82,East,92,5.0,10.0,-999,-99.99,,,-99.99,,2013-05-07 14:32:00,
2013-05-07 10:40:00,53.0,-99.9,30.12,East,82,6.0,8.0,-999,-99.99,,,-99.99,,2013-05-07 14:40:00,
2013-05-07 10:42:00,52.0,-99.9,30.12,East,92,5.0,10.0,-999,-99.99,,,-99.99,,2013-05-07 14:42:00,
2013-05-07 10:52:00,52.0,-99.9,30.82,East,92,5.0,10.0,-999,-99.99,,,-99.99,,2013-05-07 14:52:00,
2013-05-07 11:01:00,53.0,-99.9,30.82,East,82,6.0,8.0,-999,-99.99,,,-99.99,,2013-05-07 15:01:00,
2013-05-07 11:12:00,53.0,-99.9,30.12,East,82,6.0,8.0,-999,-99.99,,,-99.99,,2013-05-07 15:12:00,
2013-05-07 11:22:00,53.0,-99.9,30.12,East,82,6.0,8.0,-999,-99.99,,,-99.99,,2013-05-07 15:22:00,
2013-05-07 11:33:00,53.0,-99.9,30.12,East,82,6.0,8.0,-999,-99.99,,,-99.99,,2013-05-07 15:33:00,
2013-05-07 11:40:00,55.0,-99.9,30.81,ENE,65,6.0,10.0,-999,-99.99,,,-99.99,,2013-05-07 15:40:00,
2013-05-07 12:03:00,55.0,-99.9,30.81,ENE,65,6.0,10.0,-999,-99.99,,,-99.99,,2013-05-07 16:03:00,
2013-05-07 12:12:00,55.0,-99.9,30.81,ENE,65,6.0,10.0,-999,-99.99,,,-99.99,,2013-05-07 16:12:00,
2013-05-07 12:22:00,55.0,-99.9,30.81,ENE,65,6.0,10.0,-999,-99.99,,,-99.99,,2013-05-07 16:22:00,
2013-05-07 12:32:00,55.0,-99.9,30.81,ENE,65,6.0,10.0,-999,-99.99,,,-99.99,,2013-05-07 16:32:00,
2013-05-07 12:40:00,51.0,-99.9,30.80,NE,55,8.0,11.0,-999,-99.99,,,-99.99,,2013-05-07 16:40:00,
2013-05-07 13:01:00,51.0,-99.9,30.80,NE,55,8.0,11.0,-999,-99.99,,,-99.99,,2013-05-07 17:01:00,
2013-05-07 13:12:00,51.0,-99.9,30.80,NE,55,8.0,11.0,-999,-99.99,,,-99.99,,2013-05-07 17:12:00,
2013-05-07 13:22:00,51.0,-99.9,30.80,NE,55,8.0,11.0,-999,-99.99,,,-99.99,,2013-05-07 17:22:00,
2013-05-07 13:32:00,51.0,-99.9,30.80,NE,55,8.0,11.0,-999,-99.99,,,-99.99,,2013-05-07 17:32:00,
2013-05-07 13:40:00,53.0,-99.9,30.79,NE,51,8.0,13.0,-999,-99.99,,,-99.99,,2013-05-07 17:40:00,
2013-05-07 14:01:00,53.0,-99.9,30.79,NE,51,8.0,13.0,-999,-99.99,,,-99.99,,2013-05-07 18:01:00,
2013-05-07 14:12:00,53.0,-99.9,30.79,NE,51,8.0,13.0,-999,-99.99,,,-99.99,,2013-05-07 18:12:00,
2013-05-07 14:21:00,53.0,-99.9,30.79,NE,51,8.0,13.0,-999,-99.99,,,-99.99,,2013-05-07 18:21:00,
2013-05-07 14:32:00,53.0,-99.9,30.79,NE,51,8.0,13.0,-999,-99.99,,,-99.99,,2013-05-07 18:32:00,
2013-05-07 14:40:00,54.0,-99.9,30.08,ENE,61,6.0,11.0,-999,-99.99,,,-99.99,,2013-05-07 18:40:00,
2013-05-07 15:02:00,54.0,-99.9,30.78,ENE,61,6.0,11.0,-999,-99.99,,,-99.99,,2013-05-07 19:02:00,
2013-05-07 15:11:00,54.0,-99.9,30.08,ENE,61,6.0,11.0,-999,-99.99,,,-99.99,,2013-05-07 19:11:00,
2013-05-07 15:22:00,54.0,-99.9,30.08,ENE,61,6.0,11.0,-999,-99.99,,,-99.99,,2013-05-07 19:22:00,
2013-05-07 15:32:00,54.0,-99.9,30.08,ENE,61,6.0,11.0,-999,-99.99,,,-99.99,,2013-05-07 19:32:00,
2013-05-07 15:40:00,55.0,-99.9,30.06,ENE,67,6.0,12.0,-999,-99.99,,,-99.99,,2013-05-07 19:40:00,
2013-05-07 16:02:00,55.0,-99.9,30.76,ENE,67,6.0,12.0,-999,-99.99,,,-99.99,,2013-05-07 20:02:00,
2013-05-07 16:12:00,55.0,-99.9,30.06,ENE,67,6.0,12.0,-999,-99.99,,,-99.99,,2013-05-07 20:12:00,
2013-05-07 16:22:00,55.0,-99.9,30.06,ENE,67,6.0,12.0,-999,-99.99,,,-99.99,,2013-05-07 20:22:00,
2013-05-07 16:32:00,55.0,-99.9,30.06,ENE,67,6.0,12.0,-999,-99.99,,,-99.99,,2013-05-07 20:32:00,
2013-05-07 16:40:00,53.0,-99.9,30.05,NNE,24,6.0,10.0,-999,-99.99,,,-99.99,,2013-05-07 20:40:00,
2013-05-07 17:02:00,53.0,-99.9,30.75,NNE,24,6.0,10.0,-999,-99.99,,,-99.99,,2013-05-07 21:02:00,
2013-05-07 17:11:00,53.0,-99.9,30.05,NNE,24,6.0,10.0,-999,-99.99,,,-99.99,,2013-05-07 21:11:00,
2013-05-07 17:22:00,53.0,-99.9,30.05,NNE,24,6.0,10.0,-999,-99.99,,,-99.99,,2013-05-07 21:22:00,
2013-05-07 17:33:00,53.0,-99.9,30.05,NNE,24,6.0,10.0,-999,-99.99,,,-99.99,,2013-05-07 21:33:00,
2013-05-07 17:40:00,54.0,-99.9,30.03,NE,38,7.0,11.0,-999,-99.99,,,-99.99,,2013-05-07 21:40:00,
2013-05-07 18:02:00,54.0,-99.9,30.73,NE,38,7.0,11.0,-999,-99.99,,,-99.99,,2013-05-07 22:02:00,
2013-05-07 18:13:00,54.0,-99.9,30.03,NE,38,7.0,11.0,-999,-99.99,,,-99.99,,2013-05-07 22:13:00,
2013-05-07 18:23:00,54.0,-99.9,30.03,NE,38,7.0,11.0,-999,-99.99,,,-99.99,,2013-05-07 22:23:00,
2013-05-07 18:33:00,54.0,-99.9,30.03,NE,38,7.0,11.0,-999,-99.99,,,-99.99,,2013-05-07 22:33:00,
2013-05-07 18:40:00,53.0,-99.9,30.02,NE,51,7.0,12.0,-999,-99.99,,,-99.99,,2013-05-07 22:40:00,
2013-05-07 19:02:00,53.0,-99.9,30.72,NE,51,7.0,12.0,-999,-99.99,,,-99.99,,2013-05-07 23:02:00,
2013-05-07 19:12:00,53.0,-99.9,30.02,NE,51,7.0,12.0,-999,-99.99,,,-99.99,,2013-05-07 23:12:00,
2013-05-07 19:22:00,53.0,-99.9,30.02,NE,51,7.0,12.0,-999,-99.99,,,-99.99,,2013-05-07 23:22:00,
2013-05-07 19:32:00,53.0,-99.9,30.02,NE,51,7.0,12.0,-999,-99.99,,,-99.99,,2013-05-07 23:32:00,
2013-05-07 19:40:00,54.0,-99.9,30.02,NE,46,13.0,17.0,-999,-99.99,,,-99.99,,2013-05-07 23:40:00,
2013-05-07 20:02:00,54.0,-99.9,30.72,NE,46,13.0,17.0,-999,-99.99,,,-99.99,,2013-05-08 00:02:00,
2013-05-07 20:12:00,54.0,-99.9,30.02,NE,46,13.0,17.0,-999,-99.99,,,-99.99,,2013-05-08 00:12:00,
2013-05-07 20:22:00,54.0,-99.9,30.02,NE,46,13.0,17.0,-999,-99.99,,,-99.99,,2013-05-08 00:22:00,
2013-05-07 20:32:00,54.0,-99.9,30.02,NE,46,13.0,17.0,-999,-99.99,,,-99.99,,2013-05-08 00:32:00,
2013-05-07 20:40:00,48.0,-99.9,30.02,NE,54,8.0,11.0,-999,-99.99,,,-99.99,,2013-05-08 00:40:00,
2013-05-07 21:02:00,48.0,-99.9,30.72,NE,54,8.0,11.0,-999,-99.99,,,-99.99,,2013-05-08 01:02:00,
2013-05-07 21:12:00,48.0,-99.9,30.02,NE,54,8.0,11.0,-999,-99.99,,,-99.99,,2013-05-08 01:12:00,
2013-05-07 21:22:00,48.0,-99.9,30.02,NE,54,8.0,11.0,-999,-99.99,,,-99.99,,2013-05-08 01:22:00,
2013-05-07 21:32:00,48.0,-99.9,30.02,NE,54,8.0,11.0,-999,-99.99,,,-99.99,,2013-05-08 01:32:00,
2013-05-07 21:40:00,48.0,-99.9,30.02,ENE,69,6.0,7.0,-999,-99.99,,,-99.99,,2013-05-08 01:40:00,
2013-05-07 22:02:00,48.0,-99.9,30.72,ENE,69,6.0,7.0,-999,-99.99,,,-99.99,,2013-05-08 02:02:00,
2013-05-07 22:12:00,48.0,-99.9,30.02,ENE,69,6.0,7.0,-999,-99.99,,,-99.99,,2013-05-08 02:12:00,
2013-05-07 22:22:00,48.0,-99.9,30.02,ENE,69,6.0,7.0,-999,-99.99,,,-99.99,,2013-05-08 02:22:00,
2013-05-07 22:32:00,48.0,-99.9,30.02,ENE,69,6.0,7.0,-999,-99.99,,,-99.99,,2013-05-08 02:32:00,
2013-05-07 22:40:00,50.0,-99.9,30.02,East,79,7.0,9.0,-999,-99.99,,,-99.99,,2013-05-08 02:40:00,
2013-05-07 23:02:00,50.0,-99.9,30.72,East,79,7.0,9.0,-999,-99.99,,,-99.99,,2013-05-08 03:02:00,
2013-05-07 23:12:00,50.0,-99.9,30.02,East,79,7.0,9.0,-999,-99.99,,,-99.99,,2013-05-08 03:12:00,
2013-05-07 23:22:00,50.0,-99.9,30.02,East,79,7.0,9.0,-999,-99.99,,,-99.99,,2013-05-08 03:22:00,
2013-05-07 23:33:00,50.0,-99.9,30.02,East,79,7.0,9.0,-999,-99.99,,,-99.99,,2013-05-08 03:33:00,
2013-05-07 23:40:00,47.0,-99.9,30.03,WSW,238,8.0,9.0,-999,-99.99,,,-99.99,,2013-05-08 03:40:00,